Data supplied by UK-AIR on 30/3/2010
All Data GMT hour ending 
Status: R =Ratified P=Provisional,P*=As supplied
,,Dumfries,,,,,,,,,,,,,,,,,,,,,,,
Date,time,"Nitric oxide",status,unit,"Nitrogen dioxide",status,unit,"Nitrogen oxides as nitrogen dioxide",status,unit
 
01-01-2009,01:00,15,R,ugm-3,29,R,ugm-3,52,R,ugm-3
01-01-2009,02:00,8,R,ugm-3,21,R,ugm-3,32,R,ugm-3
01-01-2009,03:00,8,R,ugm-3,19,R,ugm-3,31,R,ugm-3
01-01-2009,04:00,20,R,ugm-3,32,R,ugm-3,63,R,ugm-3
01-01-2009,05:00,6,R,ugm-3,19,R,ugm-3,29,R,ugm-3
01-01-2009,06:00,4,R,ugm-3,15,R,ugm-3,21,R,ugm-3
01-01-2009,07:00,5,R,ugm-3,19,R,ugm-3,27,R,ugm-3
01-01-2009,08:00,5,R,ugm-3,17,R,ugm-3,25,R,ugm-3
01-01-2009,09:00,8,R,ugm-3,21,R,ugm-3,32,R,ugm-3
01-01-2009,10:00,9,R,ugm-3,19,R,ugm-3,32,R,ugm-3
01-01-2009,11:00,11,R,ugm-3,19,R,ugm-3,36,R,ugm-3
01-01-2009,12:00,21,R,ugm-3,31,R,ugm-3,63,R,ugm-3
01-01-2009,13:00,29,R,ugm-3,40,R,ugm-3,84,R,ugm-3
01-01-2009,14:00,28,R,ugm-3,38,R,ugm-3,80,R,ugm-3
01-01-2009,15:00,33,R,ugm-3,38,R,ugm-3,88,R,ugm-3
01-01-2009,16:00,39,R,ugm-3,40,R,ugm-3,99,R,ugm-3
01-01-2009,17:00,36,R,ugm-3,44,R,ugm-3,99,R,ugm-3
01-01-2009,18:00,58,R,ugm-3,48,R,ugm-3,136,R,ugm-3
01-01-2009,19:00,54,R,ugm-3,44,R,ugm-3,126,R,ugm-3
01-01-2009,20:00,54,R,ugm-3,40,R,ugm-3,122,R,ugm-3
01-01-2009,21:00,34,R,ugm-3,29,R,ugm-3,80,R,ugm-3
01-01-2009,22:00,35,R,ugm-3,32,R,ugm-3,86,R,ugm-3
01-01-2009,23:00,35,R,ugm-3,32,R,ugm-3,86,R,ugm-3
01-01-2009,24:00,16,R,ugm-3,31,R,ugm-3,55,R,ugm-3
02-01-2009,01:00,34,R,ugm-3,34,R,ugm-3,86,R,ugm-3
02-01-2009,02:00,14,R,ugm-3,25,R,ugm-3,46,R,ugm-3
02-01-2009,03:00,13,R,ugm-3,19,R,ugm-3,38,R,ugm-3
02-01-2009,04:00,8,R,ugm-3,21,R,ugm-3,32,R,ugm-3
02-01-2009,05:00,6,R,ugm-3,21,R,ugm-3,31,R,ugm-3
02-01-2009,06:00,11,R,ugm-3,27,R,ugm-3,44,R,ugm-3
02-01-2009,07:00,43,R,ugm-3,34,R,ugm-3,99,R,ugm-3
02-01-2009,08:00,54,R,ugm-3,40,R,ugm-3,122,R,ugm-3
02-01-2009,09:00,65,R,ugm-3,50,R,ugm-3,149,R,ugm-3
02-01-2009,10:00,91,R,ugm-3,61,R,ugm-3,201,R,ugm-3
02-01-2009,11:00,84,R,ugm-3,67,R,ugm-3,195,R,ugm-3
02-01-2009,12:00,78,R,ugm-3,67,R,ugm-3,185,R,ugm-3
02-01-2009,13:00,41,R,ugm-3,50,R,ugm-3,113,R,ugm-3
02-01-2009,14:00,45,R,ugm-3,53,R,ugm-3,122,R,ugm-3
02-01-2009,15:00,98,R,ugm-3,80,R,ugm-3,229,R,ugm-3
02-01-2009,16:00,71,R,ugm-3,73,R,ugm-3,181,R,ugm-3
02-01-2009,17:00,46,R,ugm-3,61,R,ugm-3,132,R,ugm-3
02-01-2009,18:00,39,R,ugm-3,55,R,ugm-3,115,R,ugm-3
02-01-2009,19:00,43,R,ugm-3,65,R,ugm-3,130,R,ugm-3
02-01-2009,20:00,51,R,ugm-3,69,R,ugm-3,147,R,ugm-3
02-01-2009,21:00,48,R,ugm-3,61,R,ugm-3,134,R,ugm-3
02-01-2009,22:00,51,R,ugm-3,67,R,ugm-3,145,R,ugm-3
02-01-2009,23:00,48,R,ugm-3,61,R,ugm-3,134,R,ugm-3
02-01-2009,24:00,29,R,ugm-3,50,R,ugm-3,94,R,ugm-3
03-01-2009,01:00,15,R,ugm-3,31,R,ugm-3,53,R,ugm-3
03-01-2009,02:00,18,R,ugm-3,36,R,ugm-3,63,R,ugm-3
03-01-2009,03:00,13,R,ugm-3,36,R,ugm-3,55,R,ugm-3
03-01-2009,04:00,11,R,ugm-3,32,R,ugm-3,50,R,ugm-3
03-01-2009,05:00,5,R,ugm-3,31,R,ugm-3,38,R,ugm-3
03-01-2009,06:00,14,R,ugm-3,32,R,ugm-3,53,R,ugm-3
03-01-2009,07:00,51,R,ugm-3,55,R,ugm-3,134,R,ugm-3
03-01-2009,08:00,65,R,ugm-3,59,R,ugm-3,159,R,ugm-3
03-01-2009,09:00,111,R,ugm-3,78,R,ugm-3,248,R,ugm-3
03-01-2009,10:00,71,R,ugm-3,76,R,ugm-3,185,R,ugm-3
03-01-2009,11:00,81,R,ugm-3,74,R,ugm-3,199,R,ugm-3
03-01-2009,12:00,110,R,ugm-3,92,R,ugm-3,260,R,ugm-3
03-01-2009,13:00,141,R,ugm-3,117,R,ugm-3,332,R,ugm-3
03-01-2009,14:00,155,R,ugm-3,122,R,ugm-3,359,R,ugm-3
03-01-2009,15:00,84,R,ugm-3,88,R,ugm-3,216,R,ugm-3
03-01-2009,16:00,110,R,ugm-3,84,R,ugm-3,252,R,ugm-3
03-01-2009,17:00,114,R,ugm-3,94,R,ugm-3,267,R,ugm-3
03-01-2009,18:00,124,R,ugm-3,94,R,ugm-3,283,R,ugm-3
03-01-2009,19:00,88,R,ugm-3,78,R,ugm-3,212,R,ugm-3
03-01-2009,20:00,115,R,ugm-3,101,R,ugm-3,277,R,ugm-3
03-01-2009,21:00,66,R,ugm-3,69,R,ugm-3,170,R,ugm-3
03-01-2009,22:00,51,R,ugm-3,53,R,ugm-3,132,R,ugm-3
03-01-2009,23:00,75,R,ugm-3,55,R,ugm-3,170,R,ugm-3
03-01-2009,24:00,63,R,ugm-3,55,R,ugm-3,151,R,ugm-3
04-01-2009,01:00,29,R,ugm-3,42,R,ugm-3,86,R,ugm-3
04-01-2009,02:00,20,R,ugm-3,36,R,ugm-3,67,R,ugm-3
04-01-2009,03:00,14,R,ugm-3,27,R,ugm-3,48,R,ugm-3
04-01-2009,04:00,10,R,ugm-3,27,R,ugm-3,42,R,ugm-3
04-01-2009,05:00,6,R,ugm-3,27,R,ugm-3,36,R,ugm-3
04-01-2009,06:00,4,R,ugm-3,21,R,ugm-3,27,R,ugm-3
04-01-2009,07:00,9,R,ugm-3,29,R,ugm-3,42,R,ugm-3
04-01-2009,08:00,24,R,ugm-3,50,R,ugm-3,86,R,ugm-3
04-01-2009,09:00,26,R,ugm-3,32,R,ugm-3,73,R,ugm-3
04-01-2009,10:00,30,R,ugm-3,38,R,ugm-3,84,R,ugm-3
04-01-2009,11:00,58,R,ugm-3,53,R,ugm-3,141,R,ugm-3
04-01-2009,12:00,65,R,ugm-3,53,R,ugm-3,153,R,ugm-3
04-01-2009,13:00,39,R,ugm-3,48,R,ugm-3,107,R,ugm-3
04-01-2009,14:00,44,R,ugm-3,48,R,ugm-3,115,R,ugm-3
04-01-2009,15:00,50,R,ugm-3,50,R,ugm-3,126,R,ugm-3
04-01-2009,16:00,61,R,ugm-3,55,R,ugm-3,149,R,ugm-3
04-01-2009,17:00,80,R,ugm-3,76,R,ugm-3,199,R,ugm-3
04-01-2009,18:00,68,R,ugm-3,65,R,ugm-3,168,R,ugm-3
04-01-2009,19:00,21,R,ugm-3,40,R,ugm-3,73,R,ugm-3
04-01-2009,20:00,29,R,ugm-3,38,R,ugm-3,82,R,ugm-3
04-01-2009,21:00,48,R,ugm-3,48,R,ugm-3,120,R,ugm-3
04-01-2009,22:00,29,R,ugm-3,42,R,ugm-3,86,R,ugm-3
04-01-2009,23:00,24,R,ugm-3,36,R,ugm-3,73,R,ugm-3
04-01-2009,24:00,16,R,ugm-3,27,R,ugm-3,52,R,ugm-3
05-01-2009,01:00,4,R,ugm-3,11,R,ugm-3,17,R,ugm-3
05-01-2009,02:00,3,R,ugm-3,17,R,ugm-3,21,R,ugm-3
05-01-2009,03:00,1,R,ugm-3,6,R,ugm-3,8,R,ugm-3
05-01-2009,04:00,3,R,ugm-3,8,R,ugm-3,11,R,ugm-3
05-01-2009,05:00,1,R,ugm-3,13,R,ugm-3,15,R,ugm-3
05-01-2009,06:00,6,R,ugm-3,17,R,ugm-3,27,R,ugm-3
05-01-2009,07:00,40,R,ugm-3,44,R,ugm-3,105,R,ugm-3
05-01-2009,08:00,149,R,ugm-3,94,R,ugm-3,321,R,ugm-3
05-01-2009,09:00,168,R,ugm-3,103,R,ugm-3,359,R,ugm-3
05-01-2009,10:00,176,R,ugm-3,120,R,ugm-3,390,R,ugm-3
05-01-2009,11:00,131,R,ugm-3,90,R,ugm-3,290,R,ugm-3
05-01-2009,12:00,190,R,ugm-3,122,R,ugm-3,413,R,ugm-3
05-01-2009,13:00,91,R,ugm-3,73,R,ugm-3,212,R,ugm-3
05-01-2009,14:00,86,R,ugm-3,74,R,ugm-3,206,R,ugm-3
05-01-2009,15:00,114,R,ugm-3,80,R,ugm-3,254,R,ugm-3
05-01-2009,16:00,230,R,ugm-3,124,R,ugm-3,476,R,ugm-3
05-01-2009,17:00,190,R,ugm-3,115,R,ugm-3,405,R,ugm-3
05-01-2009,18:00,275,R,ugm-3,113,R,ugm-3,533,R,ugm-3
05-01-2009,19:00,140,R,ugm-3,86,R,ugm-3,300,R,ugm-3
05-01-2009,20:00,89,R,ugm-3,69,R,ugm-3,204,R,ugm-3
05-01-2009,21:00,58,R,ugm-3,52,R,ugm-3,139,R,ugm-3
05-01-2009,22:00,71,R,ugm-3,53,R,ugm-3,162,R,ugm-3
05-01-2009,23:00,39,R,ugm-3,46,R,ugm-3,105,R,ugm-3
05-01-2009,24:00,30,R,ugm-3,36,R,ugm-3,82,R,ugm-3
06-01-2009,01:00,14,R,ugm-3,32,R,ugm-3,53,R,ugm-3
06-01-2009,02:00,8,R,ugm-3,19,R,ugm-3,31,R,ugm-3
06-01-2009,03:00,11,R,ugm-3,25,R,ugm-3,42,R,ugm-3
06-01-2009,04:00,6,R,ugm-3,15,R,ugm-3,25,R,ugm-3
06-01-2009,05:00,8,R,ugm-3,19,R,ugm-3,31,R,ugm-3
06-01-2009,06:00,20,R,ugm-3,27,R,ugm-3,57,R,ugm-3
06-01-2009,07:00,43,R,ugm-3,36,R,ugm-3,101,R,ugm-3
06-01-2009,08:00,163,R,ugm-3,69,R,ugm-3,317,R,ugm-3
06-01-2009,09:00,245,R,ugm-3,92,R,ugm-3,466,R,ugm-3
06-01-2009,10:00,258,R,ugm-3,101,R,ugm-3,495,R,ugm-3
06-01-2009,11:00,194,R,ugm-3,103,R,ugm-3,399,R,ugm-3
06-01-2009,12:00,,,,,,,,,
06-01-2009,13:00,176,R,ugm-3,94,R,ugm-3,363,R,ugm-3
06-01-2009,14:00,170,R,ugm-3,96,R,ugm-3,355,R,ugm-3
06-01-2009,15:00,106,R,ugm-3,82,R,ugm-3,244,R,ugm-3
06-01-2009,16:00,130,R,ugm-3,86,R,ugm-3,285,R,ugm-3
06-01-2009,17:00,160,R,ugm-3,105,R,ugm-3,350,R,ugm-3
06-01-2009,18:00,111,R,ugm-3,78,R,ugm-3,248,R,ugm-3
06-01-2009,19:00,50,R,ugm-3,50,R,ugm-3,126,R,ugm-3
06-01-2009,20:00,43,R,ugm-3,46,R,ugm-3,111,R,ugm-3
06-01-2009,21:00,34,R,ugm-3,38,R,ugm-3,90,R,ugm-3
06-01-2009,22:00,41,R,ugm-3,40,R,ugm-3,103,R,ugm-3
06-01-2009,23:00,46,R,ugm-3,46,R,ugm-3,117,R,ugm-3
06-01-2009,24:00,20,R,ugm-3,31,R,ugm-3,61,R,ugm-3
07-01-2009,01:00,9,R,ugm-3,27,R,ugm-3,40,R,ugm-3
07-01-2009,02:00,6,R,ugm-3,29,R,ugm-3,38,R,ugm-3
07-01-2009,03:00,6,R,ugm-3,19,R,ugm-3,29,R,ugm-3
07-01-2009,04:00,4,R,ugm-3,21,R,ugm-3,27,R,ugm-3
07-01-2009,05:00,8,R,ugm-3,29,R,ugm-3,40,R,ugm-3
07-01-2009,06:00,19,R,ugm-3,34,R,ugm-3,63,R,ugm-3
07-01-2009,07:00,64,R,ugm-3,40,R,ugm-3,138,R,ugm-3
07-01-2009,08:00,121,R,ugm-3,61,R,ugm-3,246,R,ugm-3
07-01-2009,09:00,258,R,ugm-3,101,R,ugm-3,495,R,ugm-3
07-01-2009,10:00,245,R,ugm-3,111,R,ugm-3,485,R,ugm-3
07-01-2009,11:00,204,R,ugm-3,96,R,ugm-3,407,R,ugm-3
07-01-2009,12:00,170,R,ugm-3,80,R,ugm-3,340,R,ugm-3
07-01-2009,13:00,176,R,ugm-3,86,R,ugm-3,355,R,ugm-3
07-01-2009,14:00,176,R,ugm-3,84,R,ugm-3,353,R,ugm-3
07-01-2009,15:00,175,R,ugm-3,97,R,ugm-3,365,R,ugm-3
07-01-2009,16:00,239,R,ugm-3,105,R,ugm-3,470,R,ugm-3
07-01-2009,17:00,188,R,ugm-3,86,R,ugm-3,372,R,ugm-3
07-01-2009,18:00,215,R,ugm-3,88,R,ugm-3,416,R,ugm-3
07-01-2009,19:00,128,R,ugm-3,61,R,ugm-3,256,R,ugm-3
07-01-2009,20:00,99,R,ugm-3,53,R,ugm-3,204,R,ugm-3
07-01-2009,21:00,78,R,ugm-3,42,R,ugm-3,160,R,ugm-3
07-01-2009,22:00,91,R,ugm-3,46,R,ugm-3,185,R,ugm-3
07-01-2009,23:00,63,R,ugm-3,36,R,ugm-3,132,R,ugm-3
07-01-2009,24:00,39,R,ugm-3,29,R,ugm-3,88,R,ugm-3
08-01-2009,01:00,36,R,ugm-3,32,R,ugm-3,88,R,ugm-3
08-01-2009,02:00,45,R,ugm-3,29,R,ugm-3,97,R,ugm-3
08-01-2009,03:00,33,R,ugm-3,23,R,ugm-3,73,R,ugm-3
08-01-2009,04:00,35,R,ugm-3,25,R,ugm-3,78,R,ugm-3
08-01-2009,05:00,43,R,ugm-3,27,R,ugm-3,92,R,ugm-3
08-01-2009,06:00,59,R,ugm-3,31,R,ugm-3,120,R,ugm-3
08-01-2009,07:00,45,R,ugm-3,55,R,ugm-3,124,R,ugm-3
08-01-2009,08:00,80,R,ugm-3,63,R,ugm-3,185,R,ugm-3
08-01-2009,09:00,134,R,ugm-3,97,R,ugm-3,302,R,ugm-3
08-01-2009,10:00,163,R,ugm-3,105,R,ugm-3,353,R,ugm-3
08-01-2009,11:00,54,R,ugm-3,57,R,ugm-3,139,R,ugm-3
08-01-2009,12:00,65,R,ugm-3,63,R,ugm-3,162,R,ugm-3
08-01-2009,13:00,90,R,ugm-3,76,R,ugm-3,214,R,ugm-3
08-01-2009,14:00,129,R,ugm-3,78,R,ugm-3,275,R,ugm-3
08-01-2009,15:00,63,R,ugm-3,74,R,ugm-3,170,R,ugm-3
08-01-2009,16:00,108,R,ugm-3,78,R,ugm-3,243,R,ugm-3
08-01-2009,17:00,68,R,ugm-3,61,R,ugm-3,164,R,ugm-3
08-01-2009,18:00,76,R,ugm-3,76,R,ugm-3,193,R,ugm-3
08-01-2009,19:00,69,R,ugm-3,73,R,ugm-3,178,R,ugm-3
08-01-2009,20:00,109,R,ugm-3,82,R,ugm-3,248,R,ugm-3
08-01-2009,21:00,81,R,ugm-3,73,R,ugm-3,197,R,ugm-3
08-01-2009,22:00,163,R,ugm-3,84,R,ugm-3,332,R,ugm-3
08-01-2009,23:00,124,R,ugm-3,63,R,ugm-3,252,R,ugm-3
08-01-2009,24:00,74,R,ugm-3,53,R,ugm-3,166,R,ugm-3
09-01-2009,01:00,40,R,ugm-3,38,R,ugm-3,99,R,ugm-3
09-01-2009,02:00,14,R,ugm-3,27,R,ugm-3,48,R,ugm-3
09-01-2009,03:00,20,R,ugm-3,27,R,ugm-3,57,R,ugm-3
09-01-2009,04:00,19,R,ugm-3,23,R,ugm-3,52,R,ugm-3
09-01-2009,05:00,19,R,ugm-3,25,R,ugm-3,53,R,ugm-3
09-01-2009,06:00,33,R,ugm-3,31,R,ugm-3,80,R,ugm-3
09-01-2009,07:00,73,R,ugm-3,42,R,ugm-3,153,R,ugm-3
09-01-2009,08:00,166,R,ugm-3,65,R,ugm-3,319,R,ugm-3
09-01-2009,09:00,291,R,ugm-3,141,R,ugm-3,586,R,ugm-3
09-01-2009,10:00,310,R,ugm-3,105,R,ugm-3,579,R,ugm-3
09-01-2009,11:00,271,R,ugm-3,105,R,ugm-3,520,R,ugm-3
09-01-2009,12:00,246,R,ugm-3,94,R,ugm-3,470,R,ugm-3
09-01-2009,13:00,203,R,ugm-3,94,R,ugm-3,403,R,ugm-3
09-01-2009,14:00,23,R,ugm-3,34,R,ugm-3,69,R,ugm-3
09-01-2009,15:00,19,R,ugm-3,36,R,ugm-3,65,R,ugm-3
09-01-2009,16:00,16,R,ugm-3,29,R,ugm-3,53,R,ugm-3
09-01-2009,17:00,16,R,ugm-3,27,R,ugm-3,52,R,ugm-3
09-01-2009,18:00,16,R,ugm-3,31,R,ugm-3,55,R,ugm-3
09-01-2009,19:00,9,R,ugm-3,25,R,ugm-3,38,R,ugm-3
09-01-2009,20:00,10,R,ugm-3,23,R,ugm-3,38,R,ugm-3
09-01-2009,21:00,6,R,ugm-3,17,R,ugm-3,27,R,ugm-3
09-01-2009,22:00,5,R,ugm-3,15,R,ugm-3,23,R,ugm-3
09-01-2009,23:00,5,R,ugm-3,15,R,ugm-3,23,R,ugm-3
09-01-2009,24:00,4,R,ugm-3,27,R,ugm-3,32,R,ugm-3
10-01-2009,01:00,5,R,ugm-3,38,R,ugm-3,46,R,ugm-3
10-01-2009,02:00,6,R,ugm-3,44,R,ugm-3,53,R,ugm-3
10-01-2009,03:00,4,R,ugm-3,25,R,ugm-3,31,R,ugm-3
10-01-2009,04:00,3,R,ugm-3,29,R,ugm-3,32,R,ugm-3
10-01-2009,05:00,3,R,ugm-3,34,R,ugm-3,38,R,ugm-3
10-01-2009,06:00,3,R,ugm-3,23,R,ugm-3,27,R,ugm-3
10-01-2009,07:00,5,R,ugm-3,27,R,ugm-3,34,R,ugm-3
10-01-2009,08:00,8,R,ugm-3,32,R,ugm-3,44,R,ugm-3
10-01-2009,09:00,9,R,ugm-3,25,R,ugm-3,38,R,ugm-3
10-01-2009,10:00,10,R,ugm-3,25,R,ugm-3,40,R,ugm-3
10-01-2009,11:00,10,R,ugm-3,27,R,ugm-3,42,R,ugm-3
10-01-2009,12:00,11,R,ugm-3,25,R,ugm-3,42,R,ugm-3
10-01-2009,13:00,11,R,ugm-3,25,R,ugm-3,42,R,ugm-3
10-01-2009,14:00,14,R,ugm-3,25,R,ugm-3,46,R,ugm-3
10-01-2009,15:00,11,R,ugm-3,17,R,ugm-3,34,R,ugm-3
10-01-2009,16:00,13,R,ugm-3,15,R,ugm-3,34,R,ugm-3
10-01-2009,17:00,15,R,ugm-3,25,R,ugm-3,48,R,ugm-3
10-01-2009,18:00,13,R,ugm-3,15,R,ugm-3,34,R,ugm-3
10-01-2009,19:00,6,R,ugm-3,11,R,ugm-3,21,R,ugm-3
10-01-2009,20:00,5,R,ugm-3,10,R,ugm-3,17,R,ugm-3
10-01-2009,21:00,13,R,ugm-3,15,R,ugm-3,34,R,ugm-3
10-01-2009,22:00,4,R,ugm-3,8,R,ugm-3,13,R,ugm-3
10-01-2009,23:00,3,R,ugm-3,8,R,ugm-3,11,R,ugm-3
10-01-2009,24:00,3,R,ugm-3,6,R,ugm-3,10,R,ugm-3
11-01-2009,01:00,3,R,ugm-3,4,R,ugm-3,8,R,ugm-3
11-01-2009,02:00,3,R,ugm-3,4,R,ugm-3,8,R,ugm-3
11-01-2009,03:00,3,R,ugm-3,4,R,ugm-3,8,R,ugm-3
11-01-2009,04:00,1,R,ugm-3,4,R,ugm-3,6,R,ugm-3
11-01-2009,05:00,1,R,ugm-3,2,R,ugm-3,4,R,ugm-3
11-01-2009,06:00,0,R,ugm-3,4,R,ugm-3,4,R,ugm-3
11-01-2009,07:00,1,R,ugm-3,2,R,ugm-3,4,R,ugm-3
11-01-2009,08:00,3,R,ugm-3,6,R,ugm-3,10,R,ugm-3
11-01-2009,09:00,1,R,ugm-3,4,R,ugm-3,6,R,ugm-3
11-01-2009,10:00,1,R,ugm-3,4,R,ugm-3,6,R,ugm-3
11-01-2009,11:00,3,R,ugm-3,4,R,ugm-3,8,R,ugm-3
11-01-2009,12:00,4,R,ugm-3,8,R,ugm-3,13,R,ugm-3
11-01-2009,13:00,4,R,ugm-3,8,R,ugm-3,13,R,ugm-3
11-01-2009,14:00,5,R,ugm-3,10,R,ugm-3,17,R,ugm-3
11-01-2009,15:00,5,R,ugm-3,10,R,ugm-3,17,R,ugm-3
11-01-2009,16:00,5,R,ugm-3,8,R,ugm-3,15,R,ugm-3
11-01-2009,17:00,5,R,ugm-3,6,R,ugm-3,13,R,ugm-3
11-01-2009,18:00,5,R,ugm-3,8,R,ugm-3,15,R,ugm-3
11-01-2009,19:00,4,R,ugm-3,8,R,ugm-3,13,R,ugm-3
11-01-2009,20:00,4,R,ugm-3,6,R,ugm-3,11,R,ugm-3
11-01-2009,21:00,4,R,ugm-3,8,R,ugm-3,13,R,ugm-3
11-01-2009,22:00,3,R,ugm-3,4,R,ugm-3,8,R,ugm-3
11-01-2009,23:00,1,R,ugm-3,4,R,ugm-3,6,R,ugm-3
11-01-2009,24:00,1,R,ugm-3,0,R,ugm-3,2,R,ugm-3
12-01-2009,01:00,1,R,ugm-3,2,R,ugm-3,4,R,ugm-3
12-01-2009,02:00,1,R,ugm-3,0,R,ugm-3,2,R,ugm-3
12-01-2009,03:00,0,R,ugm-3,2,R,ugm-3,2,R,ugm-3
12-01-2009,04:00,1,R,ugm-3,2,R,ugm-3,4,R,ugm-3
12-01-2009,05:00,1,R,ugm-3,2,R,ugm-3,4,R,ugm-3
12-01-2009,06:00,1,R,ugm-3,4,R,ugm-3,6,R,ugm-3
12-01-2009,07:00,4,R,ugm-3,10,R,ugm-3,15,R,ugm-3
12-01-2009,08:00,10,R,ugm-3,15,R,ugm-3,31,R,ugm-3
12-01-2009,09:00,25,R,ugm-3,42,R,ugm-3,80,R,ugm-3
12-01-2009,10:00,40,R,ugm-3,55,R,ugm-3,117,R,ugm-3
12-01-2009,11:00,18,R,ugm-3,29,R,ugm-3,55,R,ugm-3
12-01-2009,12:00,20,R,ugm-3,31,R,ugm-3,61,R,ugm-3
12-01-2009,13:00,21,R,ugm-3,27,R,ugm-3,59,R,ugm-3
12-01-2009,14:00,38,R,ugm-3,46,R,ugm-3,103,R,ugm-3
12-01-2009,15:00,38,R,ugm-3,46,R,ugm-3,103,R,ugm-3
12-01-2009,16:00,44,R,ugm-3,50,R,ugm-3,117,R,ugm-3
12-01-2009,17:00,40,R,ugm-3,53,R,ugm-3,115,R,ugm-3
12-01-2009,18:00,51,R,ugm-3,59,R,ugm-3,138,R,ugm-3
12-01-2009,19:00,56,R,ugm-3,59,R,ugm-3,145,R,ugm-3
12-01-2009,20:00,118,R,ugm-3,80,R,ugm-3,260,R,ugm-3
12-01-2009,21:00,35,R,ugm-3,44,R,ugm-3,97,R,ugm-3
12-01-2009,22:00,40,R,ugm-3,44,R,ugm-3,105,R,ugm-3
12-01-2009,23:00,13,R,ugm-3,25,R,ugm-3,44,R,ugm-3
12-01-2009,24:00,24,R,ugm-3,27,R,ugm-3,63,R,ugm-3
13-01-2009,01:00,4,R,ugm-3,15,R,ugm-3,21,R,ugm-3
13-01-2009,02:00,4,R,ugm-3,13,R,ugm-3,19,R,ugm-3
13-01-2009,03:00,3,R,ugm-3,10,R,ugm-3,13,R,ugm-3
13-01-2009,04:00,3,R,ugm-3,11,R,ugm-3,15,R,ugm-3
13-01-2009,05:00,10,R,ugm-3,23,R,ugm-3,38,R,ugm-3
13-01-2009,06:00,13,R,ugm-3,27,R,ugm-3,46,R,ugm-3
13-01-2009,07:00,54,R,ugm-3,40,R,ugm-3,122,R,ugm-3
13-01-2009,08:00,148,R,ugm-3,69,R,ugm-3,294,R,ugm-3
13-01-2009,09:00,289,R,ugm-3,126,R,ugm-3,567,R,ugm-3
13-01-2009,10:00,260,R,ugm-3,120,R,ugm-3,518,R,ugm-3
13-01-2009,11:00,194,R,ugm-3,86,R,ugm-3,382,R,ugm-3
13-01-2009,12:00,171,R,ugm-3,73,R,ugm-3,334,R,ugm-3
13-01-2009,13:00,160,R,ugm-3,73,R,ugm-3,317,R,ugm-3
13-01-2009,14:00,144,R,ugm-3,69,R,ugm-3,288,R,ugm-3
13-01-2009,15:00,88,R,ugm-3,53,R,ugm-3,187,R,ugm-3
13-01-2009,16:00,199,R,ugm-3,84,R,ugm-3,388,R,ugm-3
13-01-2009,17:00,251,R,ugm-3,96,R,ugm-3,479,R,ugm-3
13-01-2009,18:00,264,R,ugm-3,94,R,ugm-3,497,R,ugm-3
13-01-2009,19:00,223,R,ugm-3,80,R,ugm-3,420,R,ugm-3
13-01-2009,20:00,119,R,ugm-3,52,R,ugm-3,233,R,ugm-3
13-01-2009,21:00,73,R,ugm-3,46,R,ugm-3,157,R,ugm-3
13-01-2009,22:00,68,R,ugm-3,40,R,ugm-3,143,R,ugm-3
13-01-2009,23:00,54,R,ugm-3,32,R,ugm-3,115,R,ugm-3
13-01-2009,24:00,39,R,ugm-3,34,R,ugm-3,94,R,ugm-3
14-01-2009,01:00,23,R,ugm-3,27,R,ugm-3,61,R,ugm-3
14-01-2009,02:00,19,R,ugm-3,23,R,ugm-3,52,R,ugm-3
14-01-2009,03:00,14,R,ugm-3,23,R,ugm-3,44,R,ugm-3
14-01-2009,04:00,9,R,ugm-3,23,R,ugm-3,36,R,ugm-3
14-01-2009,05:00,6,R,ugm-3,19,R,ugm-3,29,R,ugm-3
14-01-2009,06:00,15,R,ugm-3,25,R,ugm-3,48,R,ugm-3
14-01-2009,07:00,38,R,ugm-3,34,R,ugm-3,92,R,ugm-3
14-01-2009,08:00,110,R,ugm-3,61,R,ugm-3,229,R,ugm-3
14-01-2009,09:00,193,R,ugm-3,103,R,ugm-3,397,R,ugm-3
14-01-2009,10:00,250,R,ugm-3,109,R,ugm-3,491,R,ugm-3
14-01-2009,11:00,163,R,ugm-3,80,R,ugm-3,329,R,ugm-3
14-01-2009,12:00,151,R,ugm-3,84,R,ugm-3,315,R,ugm-3
14-01-2009,13:00,159,R,ugm-3,73,R,ugm-3,315,R,ugm-3
14-01-2009,14:00,125,R,ugm-3,65,R,ugm-3,256,R,ugm-3
14-01-2009,15:00,75,R,ugm-3,57,R,ugm-3,172,R,ugm-3
14-01-2009,16:00,48,R,ugm-3,53,R,ugm-3,126,R,ugm-3
14-01-2009,17:00,45,R,ugm-3,53,R,ugm-3,122,R,ugm-3
14-01-2009,18:00,29,R,ugm-3,46,R,ugm-3,90,R,ugm-3
14-01-2009,19:00,14,R,ugm-3,29,R,ugm-3,50,R,ugm-3
14-01-2009,20:00,13,R,ugm-3,29,R,ugm-3,48,R,ugm-3
14-01-2009,21:00,6,R,ugm-3,21,R,ugm-3,31,R,ugm-3
14-01-2009,22:00,9,R,ugm-3,25,R,ugm-3,38,R,ugm-3
14-01-2009,23:00,8,R,ugm-3,27,R,ugm-3,38,R,ugm-3
14-01-2009,24:00,11,R,ugm-3,31,R,ugm-3,48,R,ugm-3
15-01-2009,01:00,3,R,ugm-3,17,R,ugm-3,21,R,ugm-3
15-01-2009,02:00,3,R,ugm-3,13,R,ugm-3,17,R,ugm-3
15-01-2009,03:00,3,R,ugm-3,15,R,ugm-3,19,R,ugm-3
15-01-2009,04:00,3,R,ugm-3,13,R,ugm-3,17,R,ugm-3
15-01-2009,05:00,3,R,ugm-3,10,R,ugm-3,13,R,ugm-3
15-01-2009,06:00,3,R,ugm-3,10,R,ugm-3,13,R,ugm-3
15-01-2009,07:00,5,R,ugm-3,13,R,ugm-3,21,R,ugm-3
15-01-2009,08:00,10,R,ugm-3,21,R,ugm-3,36,R,ugm-3
15-01-2009,09:00,16,R,ugm-3,29,R,ugm-3,53,R,ugm-3
15-01-2009,10:00,16,R,ugm-3,27,R,ugm-3,52,R,ugm-3
15-01-2009,11:00,14,R,ugm-3,23,R,ugm-3,44,R,ugm-3
15-01-2009,12:00,16,R,ugm-3,23,R,ugm-3,48,R,ugm-3
15-01-2009,13:00,11,R,ugm-3,19,R,ugm-3,36,R,ugm-3
15-01-2009,14:00,11,R,ugm-3,21,R,ugm-3,38,R,ugm-3
15-01-2009,15:00,11,R,ugm-3,23,R,ugm-3,40,R,ugm-3
15-01-2009,16:00,13,R,ugm-3,23,R,ugm-3,42,R,ugm-3
15-01-2009,17:00,10,R,ugm-3,19,R,ugm-3,34,R,ugm-3
15-01-2009,18:00,9,R,ugm-3,19,R,ugm-3,32,R,ugm-3
15-01-2009,19:00,5,R,ugm-3,15,R,ugm-3,23,R,ugm-3
15-01-2009,20:00,5,R,ugm-3,15,R,ugm-3,23,R,ugm-3
15-01-2009,21:00,5,R,ugm-3,13,R,ugm-3,21,R,ugm-3
15-01-2009,22:00,3,R,ugm-3,11,R,ugm-3,15,R,ugm-3
15-01-2009,23:00,3,R,ugm-3,10,R,ugm-3,13,R,ugm-3
15-01-2009,24:00,1,R,ugm-3,8,R,ugm-3,10,R,ugm-3
16-01-2009,01:00,1,R,ugm-3,6,R,ugm-3,8,R,ugm-3
16-01-2009,02:00,1,R,ugm-3,6,R,ugm-3,8,R,ugm-3
16-01-2009,03:00,1,R,ugm-3,6,R,ugm-3,8,R,ugm-3
16-01-2009,04:00,1,R,ugm-3,4,R,ugm-3,6,R,ugm-3
16-01-2009,05:00,1,R,ugm-3,6,R,ugm-3,8,R,ugm-3
16-01-2009,06:00,1,R,ugm-3,8,R,ugm-3,10,R,ugm-3
16-01-2009,07:00,4,R,ugm-3,11,R,ugm-3,17,R,ugm-3
16-01-2009,08:00,11,R,ugm-3,17,R,ugm-3,34,R,ugm-3
16-01-2009,09:00,11,R,ugm-3,19,R,ugm-3,36,R,ugm-3
16-01-2009,10:00,15,R,ugm-3,23,R,ugm-3,46,R,ugm-3
16-01-2009,11:00,18,R,ugm-3,25,R,ugm-3,52,R,ugm-3
16-01-2009,12:00,11,R,ugm-3,17,R,ugm-3,34,R,ugm-3
16-01-2009,13:00,11,R,ugm-3,17,R,ugm-3,34,R,ugm-3
16-01-2009,14:00,11,R,ugm-3,19,R,ugm-3,36,R,ugm-3
16-01-2009,15:00,9,R,ugm-3,17,R,ugm-3,31,R,ugm-3
16-01-2009,16:00,10,R,ugm-3,15,R,ugm-3,31,R,ugm-3
16-01-2009,17:00,14,R,ugm-3,19,R,ugm-3,40,R,ugm-3
16-01-2009,18:00,8,R,ugm-3,15,R,ugm-3,27,R,ugm-3
16-01-2009,19:00,6,R,ugm-3,11,R,ugm-3,21,R,ugm-3
16-01-2009,20:00,5,R,ugm-3,11,R,ugm-3,19,R,ugm-3
16-01-2009,21:00,6,R,ugm-3,13,R,ugm-3,23,R,ugm-3
16-01-2009,22:00,4,R,ugm-3,10,R,ugm-3,15,R,ugm-3
16-01-2009,23:00,3,R,ugm-3,8,R,ugm-3,11,R,ugm-3
16-01-2009,24:00,3,R,ugm-3,8,R,ugm-3,11,R,ugm-3
17-01-2009,01:00,1,R,ugm-3,2,R,ugm-3,4,R,ugm-3
17-01-2009,02:00,1,R,ugm-3,2,R,ugm-3,4,R,ugm-3
17-01-2009,03:00,0,R,ugm-3,2,R,ugm-3,2,R,ugm-3
17-01-2009,04:00,1,R,ugm-3,2,R,ugm-3,4,R,ugm-3
17-01-2009,05:00,0,R,ugm-3,2,R,ugm-3,2,R,ugm-3
17-01-2009,06:00,3,R,ugm-3,4,R,ugm-3,8,R,ugm-3
17-01-2009,07:00,3,R,ugm-3,8,R,ugm-3,11,R,ugm-3
17-01-2009,08:00,26,R,ugm-3,29,R,ugm-3,69,R,ugm-3
17-01-2009,09:00,64,R,ugm-3,65,R,ugm-3,162,R,ugm-3
17-01-2009,10:00,14,R,ugm-3,32,R,ugm-3,53,R,ugm-3
17-01-2009,11:00,50,R,ugm-3,42,R,ugm-3,118,R,ugm-3
17-01-2009,12:00,25,R,ugm-3,29,R,ugm-3,67,R,ugm-3
17-01-2009,13:00,20,R,ugm-3,23,R,ugm-3,53,R,ugm-3
17-01-2009,14:00,10,R,ugm-3,17,R,ugm-3,32,R,ugm-3
17-01-2009,15:00,9,R,ugm-3,15,R,ugm-3,29,R,ugm-3
17-01-2009,16:00,6,R,ugm-3,11,R,ugm-3,21,R,ugm-3
17-01-2009,17:00,6,R,ugm-3,11,R,ugm-3,21,R,ugm-3
17-01-2009,18:00,4,R,ugm-3,10,R,ugm-3,15,R,ugm-3
17-01-2009,19:00,3,R,ugm-3,6,R,ugm-3,10,R,ugm-3
17-01-2009,20:00,5,R,ugm-3,10,R,ugm-3,17,R,ugm-3
17-01-2009,21:00,5,R,ugm-3,10,R,ugm-3,17,R,ugm-3
17-01-2009,22:00,8,R,ugm-3,10,R,ugm-3,21,R,ugm-3
17-01-2009,23:00,8,R,ugm-3,13,R,ugm-3,25,R,ugm-3
17-01-2009,24:00,6,R,ugm-3,11,R,ugm-3,21,R,ugm-3
18-01-2009,01:00,6,R,ugm-3,15,R,ugm-3,25,R,ugm-3
18-01-2009,02:00,3,R,ugm-3,4,R,ugm-3,8,R,ugm-3
18-01-2009,03:00,3,R,ugm-3,6,R,ugm-3,10,R,ugm-3
18-01-2009,04:00,3,R,ugm-3,6,R,ugm-3,10,R,ugm-3
18-01-2009,05:00,1,R,ugm-3,2,R,ugm-3,4,R,ugm-3
18-01-2009,06:00,1,R,ugm-3,2,R,ugm-3,4,R,ugm-3
18-01-2009,07:00,3,R,ugm-3,6,R,ugm-3,10,R,ugm-3
18-01-2009,08:00,6,R,ugm-3,13,R,ugm-3,23,R,ugm-3
18-01-2009,09:00,3,R,ugm-3,10,R,ugm-3,13,R,ugm-3
18-01-2009,10:00,4,R,ugm-3,10,R,ugm-3,15,R,ugm-3
18-01-2009,11:00,8,R,ugm-3,15,R,ugm-3,27,R,ugm-3
18-01-2009,12:00,5,R,ugm-3,10,R,ugm-3,17,R,ugm-3
18-01-2009,13:00,6,R,ugm-3,11,R,ugm-3,21,R,ugm-3
18-01-2009,14:00,8,R,ugm-3,10,R,ugm-3,21,R,ugm-3
18-01-2009,15:00,9,R,ugm-3,11,R,ugm-3,25,R,ugm-3
18-01-2009,16:00,6,R,ugm-3,11,R,ugm-3,21,R,ugm-3
18-01-2009,17:00,13,R,ugm-3,21,R,ugm-3,40,R,ugm-3
18-01-2009,18:00,20,R,ugm-3,19,R,ugm-3,50,R,ugm-3
18-01-2009,19:00,10,R,ugm-3,13,R,ugm-3,29,R,ugm-3
18-01-2009,20:00,5,R,ugm-3,13,R,ugm-3,21,R,ugm-3
18-01-2009,21:00,4,R,ugm-3,8,R,ugm-3,13,R,ugm-3
18-01-2009,22:00,3,R,ugm-3,6,R,ugm-3,10,R,ugm-3
18-01-2009,23:00,4,R,ugm-3,11,R,ugm-3,17,R,ugm-3
18-01-2009,24:00,1,R,ugm-3,6,R,ugm-3,8,R,ugm-3
19-01-2009,01:00,3,R,ugm-3,4,R,ugm-3,8,R,ugm-3
19-01-2009,02:00,4,R,ugm-3,2,R,ugm-3,8,R,ugm-3
19-01-2009,03:00,3,R,ugm-3,2,R,ugm-3,6,R,ugm-3
19-01-2009,04:00,3,R,ugm-3,2,R,ugm-3,6,R,ugm-3
19-01-2009,05:00,3,R,ugm-3,0,R,ugm-3,4,R,ugm-3
19-01-2009,06:00,3,R,ugm-3,0,R,ugm-3,4,R,ugm-3
19-01-2009,07:00,4,R,ugm-3,6,R,ugm-3,11,R,ugm-3
19-01-2009,08:00,15,R,ugm-3,23,R,ugm-3,46,R,ugm-3
19-01-2009,09:00,19,R,ugm-3,31,R,ugm-3,59,R,ugm-3
19-01-2009,10:00,66,R,ugm-3,73,R,ugm-3,174,R,ugm-3
19-01-2009,11:00,105,R,ugm-3,117,R,ugm-3,277,R,ugm-3
19-01-2009,12:00,139,R,ugm-3,107,R,ugm-3,319,R,ugm-3
19-01-2009,13:00,88,R,ugm-3,94,R,ugm-3,227,R,ugm-3
19-01-2009,14:00,89,R,ugm-3,97,R,ugm-3,233,R,ugm-3
19-01-2009,15:00,83,R,ugm-3,82,R,ugm-3,208,R,ugm-3
19-01-2009,16:00,80,R,ugm-3,76,R,ugm-3,199,R,ugm-3
19-01-2009,17:00,98,R,ugm-3,90,R,ugm-3,239,R,ugm-3
19-01-2009,18:00,81,R,ugm-3,90,R,ugm-3,214,R,ugm-3
19-01-2009,19:00,34,R,ugm-3,53,R,ugm-3,105,R,ugm-3
19-01-2009,20:00,36,R,ugm-3,57,R,ugm-3,113,R,ugm-3
19-01-2009,21:00,9,R,ugm-3,17,R,ugm-3,31,R,ugm-3
19-01-2009,22:00,8,R,ugm-3,17,R,ugm-3,29,R,ugm-3
19-01-2009,23:00,31,R,ugm-3,25,R,ugm-3,73,R,ugm-3
19-01-2009,24:00,13,R,ugm-3,13,R,ugm-3,32,R,ugm-3
20-01-2009,01:00,3,R,ugm-3,8,R,ugm-3,11,R,ugm-3
20-01-2009,02:00,1,R,ugm-3,4,R,ugm-3,6,R,ugm-3
20-01-2009,03:00,0,R,ugm-3,4,R,ugm-3,4,R,ugm-3
20-01-2009,04:00,1,R,ugm-3,2,R,ugm-3,4,R,ugm-3
20-01-2009,05:00,1,R,ugm-3,4,R,ugm-3,6,R,ugm-3
20-01-2009,06:00,3,R,ugm-3,6,R,ugm-3,10,R,ugm-3
20-01-2009,07:00,9,R,ugm-3,17,R,ugm-3,31,R,ugm-3
20-01-2009,08:00,20,R,ugm-3,31,R,ugm-3,61,R,ugm-3
20-01-2009,09:00,49,R,ugm-3,55,R,ugm-3,130,R,ugm-3
20-01-2009,10:00,88,R,ugm-3,78,R,ugm-3,212,R,ugm-3
20-01-2009,11:00,36,R,ugm-3,42,R,ugm-3,97,R,ugm-3
20-01-2009,12:00,,,,,,,,,
20-01-2009,13:00,,,,,,,,,
20-01-2009,14:00,28,R,ugm-3,42,R,ugm-3,84,R,ugm-3
20-01-2009,15:00,23,R,ugm-3,36,R,ugm-3,71,R,ugm-3
20-01-2009,16:00,50,R,ugm-3,57,R,ugm-3,134,R,ugm-3
20-01-2009,17:00,43,R,ugm-3,46,R,ugm-3,111,R,ugm-3
20-01-2009,18:00,71,R,ugm-3,73,R,ugm-3,181,R,ugm-3
20-01-2009,19:00,89,R,ugm-3,67,R,ugm-3,202,R,ugm-3
20-01-2009,20:00,28,R,ugm-3,31,R,ugm-3,73,R,ugm-3